Regional Weather Roundup
Issued by NWS

Home | Current Version | Previous Version | Text Only | Print | Product List | Glossary Off
Versions: 1 2 3 4 5 6 7 8 9 10 11 12 13 14 15 16 17 18 19 20 21 22 23 24 25 26 27 28 29 30 31 32 33 34 35 36 37 38 39 40 41 42 43 44 45 46 47 48 49 50

000
ASUS43 KOAX 271610
RWRNE

WEATHER ROUNDUP FOR NEBRASKA
NATIONAL WEATHER SERVICE OMAHA NE
1000 AM CST FRI FEB 27 2015

NOTES: SATELLITE DATA IS BEING USED TO AUGMENT CLOUD COVER ABOVE
       12000 FEET.
       "FAIR" INDICATES FEW OR NO CLOUDS BELOW 12,000 FEET WITH NO
       SIGNIFICANT WEATHER AND/OR OBSTRUCTIONS TO VISIBILITY.

  * THESE STATIONS DO NOT REPORT WEATHER SUCH AS RAIN...SNOW OR FOG.

NEZ001>004-019>022-054>056-271700-
NEBRASKA PANHANDLE

CITY           SKY/WX    TMP DP  RH WIND       PRES   REMARKS
SCOTTSBLUFF    CLOUDY    11   4  73 SE15      30.16F WCI  -5
ALLIANCE       CLOUDY    10   5  80 S20       30.18F WCI  -9
CHADRON        SUNNY     12   3  67 S16       30.20F WCI  -5
KIMBALL        LGT SNOW   9   5  82 S18       30.07S WCI  -9
SIDNEY         CLOUDY     9   4  80 S16       30.17S HAZE    WCI  -8
$$

NEZ057>060-069>072-079>082-271700-
SOUTHWEST NEBRASKA

CITY           SKY/WX    TMP DP  RH WIND       PRES   REMARKS
NORTH PLATTE   CLOUDY    10   0  63 SE8       30.38F WCI  -2
IMPERIAL       CLOUDY    12   3  67 SE15      30.31F HAZE    WCI  -4
LEXINGTON      CLOUDY    12   0  58 S8        30.45S WCI   0
MCCOOK         PTSUNNY   15   1  53 SE14      30.42S WCI   0
OGALLALA       CLOUDY    12   4  70 S8        30.30F WCI   1
$$

NEZ005>010-023>029-035>040-094-271700-
NORTH CENTRAL NEBRASKA

CITY           SKY/WX    TMP DP  RH WIND       PRES   REMARKS
VALENTINE      SUNNY     10   1  67 S10       30.37F WCI  -4
AINSWORTH      SUNNY     10   1  67 S13       30.38F WCI  -5
BROKEN BOW     MOSUNNY   11   0  61 S9        30.42F WCI  -2
O`NEILL        SUNNY     12   3  68 S8        30.47F WCI   0
ORD            SUNNY      9  -1  64 CALM      30.47F
THEDFORD       SUNNY     11   1  62 S12       30.35F WCI  -3
$$

NEZ041-046>049-061>064-073>077-083>087-271700-
SOUTH CENTRAL NEBRASKA

CITY           SKY/WX    TMP DP  RH WIND       PRES   REMARKS
GRAND ISLAND   FAIR       9   0  67 CALM      30.53F
AURORA         SUNNY      9  -1  66 CALM      30.53F
HASTINGS       SUNNY      9  -1  64 CALM      30.51S
HEBRON         MOSUNNY   10   2  71 CALM      30.59S
HOLDREGE       MOSUNNY   11  -1  58 S5        30.47S WCI   3
KEARNEY *      SUNNY     10   0  61 SE6       30.48F WCI   1
YORK           SUNNY      7   0  72 CALM      30.56F
$$

NEZ011>018-030>034-042>045-271700-
NORTHEAST NEBRASKA

CITY           SKY/WX    TMP DP  RH WIND       PRES   REMARKS
NORFOLK        SUNNY      8  -2  63 SW6       30.54F WCI  -2
ALBION         SUNNY     10   0  64 SW7       30.53S WCI  -2
BLAIR          SUNNY      5  -4  68 CALM      30.60S
COLUMBUS *     SUNNY      7  -8  51 W5        30.59F WCI  -2
FREMONT        SUNNY      8  -1  67 CALM      30.61F
TEKAMAH        SUNNY      5  -3  69 CALM      30.63F
WAYNE          FAIR       7  -3  63 W3        30.57F
$$

NEZ050>053-065>068-078-088>093-271700-
SOUTHEAST NEBRASKA

CITY           SKY/WX    TMP DP  RH WIND       PRES   REMARKS
LINCOLN        SUNNY      8  -1  66 CALM      30.63S
OMAHA EPPLEY   SUNNY      6  -1  73 NW5       30.64S WCI  -3
BEATRICE       SUNNY      7  -1  68 CALM      30.61F
FALLS CITY     MOSUNNY    8   0  69 CALM      30.65S
NEBRASKA CITY  SUNNY      7  -3  61 CALM      30.62S
PLATTSMOUTH    SUNNY      6  -2  68 CALM      30.62S
$$

NEZ044-045-051>053-067-271700-
OMAHA AREA

CITY           SKY/WX    TMP DP  RH WIND       PRES   REMARKS
OMAHA EPPLEY   SUNNY      6  -1  73 NW5       30.64S WCI  -3
BLAIR          SUNNY      5  -4  68 CALM      30.60S
FREMONT        SUNNY      8  -1  67 CALM      30.61F
MILLARD        SUNNY      7  -3  63 CALM      30.63F
OFFUTT AFB     SUNNY      7  -3  64 VRB2      30.63S
PLATTSMOUTH    SUNNY      6  -2  68 CALM      30.62S
WAHOO          FAIR       8  -3  63 W3        30.61F
$$



USA.gov is the U.S. government's official web portal to all federal, state and local government web resources and services.